FW0896 Weather Reports


time (UTC)temp
C
wind
direction
speed
KPH
gust
KPH
rain 1hr
cm
rain 24hr
cm
rain mn
cm
humidity
%
barometer
mb
20260905110035 21 89 3.2 9.7 0.00 0.00 0.00 96 1013.3
20260905104533 21 99 1.6 6.4 0.00 0.00 0.00 96 1013.0
20260905103033 21 86 3.2 8.0 0.00 0.00 0.00 96 1013.1
20260905101541 21 105 4.8 8.0 0.00 0.00 0.00 96 1013.0
20260905100030 21 94 3.2 8.0 0.00 0.00 0.00 96 1013.2
20260905094529 21 87 3.2 6.4 0.00 0.00 0.00 96 1013.3
20260905093028 21 93 1.6 6.4 0.00 0.00 0.00 96 1012.9
20260905091526 21 65 3.2 4.8 0.00 0.00 0.00 96 1012.4
20260905090023 21 70 3.2 6.4 0.00 0.00 0.00 96 1012.6
20260905084522 22 70 3.2 4.8 0.00 0.00 0.00 95 1012.7
20260905083027 22 40 1.6 3.2 0.00 0.00 0.00 95 1013.0
20260905081520 22 36 3.2 9.7 0.00 0.00 0.00 95 1013.0
20260905080020 22 42 3.2 8.0 0.00 0.00 0.00 95 1013.0
20260905074520 22 38 4.8 6.4 0.00 0.00 0.00 95 1013.0
20260905073023 22 75 3.2 6.4 0.00 0.00 0.00 95 1013.1
20260905071516 22 49 3.2 6.4 0.00 0.00 0.00 94 1012.9
20260905070016 22 68 3.2 4.8 0.00 0.00 0.00 94 1012.9
20260905064521 23 88 1.6 6.4 0.00 0.00 0.00 94 1012.8
20260905063011 23 86 1.6 4.8 0.00 0.00 0.00 94 1012.8
20260905061509 23 49 3.2 4.8 0.00 0.00 0.00 94 1013.0
20260905060015 23 54 1.6 4.8 0.00 0.00 0.00 93 1012.8
20260905054506 23 48 3.2 6.4 0.00 0.00 0.00 93 1012.8
20260905053003 23 39 4.8 8.0 0.00 0.00 0.00 93 1012.7
20260905051558 23 39 4.8 6.4 0.00 0.00 0.00 93 1012.5
20260905050054 24 48 4.8 8.0 0.00 0.00 0.00 93 1012.6
20260905044600 24 48 3.2 6.4 0.00 0.00 0.00 93 1012.7
20260905043053 24 49 4.8 9.7 0.00 0.00 0.00 92 1012.5
20260905041554 24 34 3.2 8.0 0.00 0.00 0.00 92 1012.7
20260905040051 25 33 4.8 9.7 0.00 0.00 0.00 91 1012.8
20260905034552 25 34 6.4 12.9 0.00 0.00 0.00 92 1012.7
20260905033049 25 27 9.7 14.5 0.00 0.00 0.00 92 1012.6
20260905031547 25 27 4.8 11.3 0.00 0.00 0.00 92 1012.5
20260905030052 26 25 4.8 9.7 0.00 0.00 0.00 91 1012.5
20260905024543 26 24 4.8 9.7 0.00 0.00 0.00 90 1012.1
20260905023041 26 21 3.2 6.4 0.00 0.00 0.00 89 1012.2
20260905021539 27 359 0.0 4.8 0.00 0.00 0.00 87 1012.0
20260905020054 27 189 1.6 3.2 0.00 0.00 0.00 84 1011.9
20260905014535 28 188 0.0 0.0 0.00 0.00 0.00 82 1011.7
20260905013039 28 188 0.0 0.0 0.00 0.00 0.00 81 1011.5
20260905011529 29 188 0.0 0.0 0.00 0.00 0.00 80 1011.2
20260905010028 30 188 0.0 0.0 0.00 0.00 0.00 78 1011.1
20260905004527 30 188 0.0 0.0 0.00 0.00 0.00 77 1011.2
20260905003025 30 188 0.0 0.0 0.00 0.00 0.00 75 1011.2
20260905001524 31 188 0.0 0.0 0.00 0.00 0.00 75 1011.0
20260905000021 31 188 0.0 0.0 0.00 0.00 0.00 74 1011.0
20260904234520 31 188 0.0 0.0 0.00 0.00 0.00 73 1010.8
20260904233013 32 189 0.0 0.0 0.00 0.00 0.00 72 1010.9
20260904231534 32 186 0.0 0.0 0.00 0.00 0.00 72 1011.0
20260904230030 33 187 0.0 0.0 0.00 0.00 0.00 68 1010.8
20260904224529 33 184 0.0 1.6 0.00 0.00 0.00 67 1010.7
20260904223028 34 197 0.0 3.2 0.00 0.00 0.00 66 1010.5
20260904221528 33 210 0.0 3.2 0.00 0.00 0.00 66 1010.5
20260904220027 33 235 1.6 6.4 0.00 0.00 0.00 66 1010.5
20260904214527 35 209 3.2 8.0 0.00 0.00 0.00 63 1010.5
20260904213029 36 207 0.0 3.2 0.00 0.00 0.00 63 1010.5
20260904211523 35 220 1.6 6.4 0.00 0.00 0.00 63 1010.5
20260904210026 36 176 0.0 1.6 0.00 0.00 0.00 64 1010.3
20260904204515 35 122 0.0 0.0 0.00 0.00 0.00 66 1010.4
20260904203013 34 94 0.0 0.0 0.00 0.00 0.00 67 1010.4
20260904201512 33 81 1.6 6.4 0.00 0.00 0.00 68 1010.5
20260904200009 35 122 0.0 0.0 0.00 0.00 0.00 66 1010.5
20260904194503 35 155 0.0 1.6 0.00 0.00 0.00 66 1010.4
20260904193100 34 86 0.0 6.4 0.00 0.00 0.00 68 1010.4
20260904191554 34 194 0.0 4.8 0.00 0.00 0.00 66 1010.5
20260904190049 33 94 0.0 3.2 0.00 0.00 0.00 68 1010.5
20260904184549 33 86 1.6 4.8 0.00 0.00 0.00 67 1010.7
20260904183042 33 145 0.0 4.8 0.00 0.00 0.00 70 1010.6
20260904181545 32 76 0.0 6.4 0.00 0.00 0.00 72 1010.6
20260904180038 32 1 0.0 8.0 0.00 0.00 0.00 71 1010.7
20260904174534 32 75 0.0 4.8 0.00 0.00 0.00 69 1010.7
20260904173029 31 34 0.0 6.4 0.00 0.00 0.00 74 1010.6
20260904171529 30 32 0.0 4.8 0.00 0.00 0.00 76 1010.6
20260904170022 30 25 1.6 8.0 0.00 0.00 0.00 73 1010.6
20260904164520 30 39 0.0 8.0 0.00 0.00 0.00 73 1010.6
20260904163018 30 23 1.6 6.4 0.00 0.00 0.00 75 1010.6
20260904161514 28 259 0.0 0.0 0.00 0.00 0.00 77 1010.6
20260904160012 28 260 0.0 3.2 0.00 0.00 0.00 79 1010.7
20260904154508 27 258 1.6 4.8 0.00 0.00 0.00 80 1010.6
20260904153006 27 242 1.6 6.4 0.00 0.00 0.00 82 1010.5
20260904151503 27 250 1.6 6.4 0.00 0.00 0.00 81 1010.5
20260904150003 26 204 1.6 6.4 0.00 0.00 0.00 83 1010.5
20260904144558 26 231 3.2 6.4 0.00 0.00 0.00 83 1010.5
20260904143055 26 217 3.2 9.7 0.00 0.00 0.00 85 1010.4
20260904141552 25 223 3.2 8.0 0.00 0.00 0.00 87 1010.3
20260904140049 25 210 0.0 6.4 0.00 0.00 0.00 88 1010.2
20260904134548 24 216 1.6 6.4 0.00 0.20 0.00 88 1010.3
20260904133044 24 181 0.0 8.0 0.00 0.20 0.00 90 1010.5
20260904131556 23 195 0.0 0.0 0.00 0.20 0.00 89 1010.6
20260904130041 23 195 0.0 0.0 0.00 0.20 0.00 90 1010.7
20260904124540 22 194 0.0 4.8 0.00 0.20 0.00 89 1010.5
20260904123037 22 207 1.6 4.8 0.00 0.20 0.00 90 1010.2
20260904121537 22 221 1.6 4.8 0.00 0.20 0.00 90 1010.0
20260904120043 22 195 1.6 4.8 0.00 0.20 0.00 90 1010.0
20260904114533 22 186 4.8 8.0 0.00 0.41 0.00 91 1009.9
20260904113033 22 203 0.0 4.8 0.00 0.41 0.00 91 1009.7
20260904111540 22 203 1.6 6.4 0.00 0.41 0.00 90 1009.6